{"data":{"norad_id":65333,"intl_designator":"2025-189L","name":"STARLINK-34602","alt_names":[],"object_type":"PAYLOAD","status":"ACTIVE","operator":null,"country":"US","launch_date":"2025-08-27","launch_site_code":"AFETR","launch_vehicle":null,"mission":null,"orbit_class":"UNKNOWN","rcs_meters":null,"size_class":null,"mass_kg":null,"dimensions":null,"purposes":["comms"],"wikipedia_slug":null,"has_3d_model":false,"image_url":null,"decayed_at":null,"tle_current":{"epoch":"2026-05-25T04:40:26.340384Z","epoch_age_seconds":54289,"freshness":"FRESH","line1":"1 65333U 25189L   26145.19474931  .00019276  00000+0  63101-3 0  9999","line2":"2 65333  53.1589 211.1237 0001202  95.5567 264.5572 15.31716273 42825","mean_motion":15.31716273,"eccentricity":0.0001202,"inclination_deg":53.1589,"raan_deg":211.1237,"arg_perigee_deg":95.5567,"mean_anomaly_deg":264.5572,"bstar":0.00063101,"rev_number":4282,"period_min":94.012189162137,"perigee_km":469.86825750479,"apogee_km":471.51471587299,"semimajor_km":6848.8284866889,"source":"CELESTRAK","updated_at":"2026-05-25T13:38:20.760084Z"}}}